This demonstration page uses our WeatherBlox Daily Observations layout. Learn more.

Left ArrowRight Arrow

38.83388, -104.82136

Hourly Observations for April 10, 2017

Temp ( °F °C ) Dew Point ( °F °C ) Humidity (%) Winds ( mph kmh ) Pressure ( in mb ) Visibility ( mi km ) Precip ( " mm )
12:58 am 00:58 Clear 40 4.5 0 -17.7 18 18 SW 7 11 29.57 1001 10 16 0.00 0.00
1:58 am 01:58 Clear 40 4.4 -2 -18.7 17 17 SW 6 9 29.57 1001 10 16 0.00 0.00
2:58 am 02:58 Clear 38 3.5 -2 -18.7 18 18 SSW 8 13 29.58 1002 10 16 0.00 0.00
3:58 am 03:58 Clear 39 3.9 -2 -18.7 18 18 SW 9 15 29.62 1003 10 16 0.00 0.00
4:58 am 04:58 Clear 38 3.6 -2 -18.7 18 18 SW 8 13 29.65 1004 10 16 0.00 0.00
5:58 am 05:58 Clear 36 2.2 1 -17.3 22 22 SE 3 6 29.71 1006 10 16 0.00 0.00
6:58 am 06:58 Sunny 37 2.7 1 -17.5 21 21 SSE 8 13 29.74 1007 10 16 0.00 0.00
7:58 am 07:58 Sunny 35 1.7 9 -12.7 34 34 S 10 17 29.80 1009 10 16 0.00 0.00
8:58 am 08:58 Sunny 37 2.9 13 -10.5 37 37 SE 13 20 29.83 1010 10 16 0.00 0.00
9:58 am 09:58 Sunny 40 4.3 16 -8.8 38 38 SE 7 11 29.84 1011 10 16 0.00 0.00
10:58 am 10:58 Sunny 43 5.9 13 -10.8 29 29 SE 10 17 29.83 1010 10 16 0.00 0.00
11:58 am 11:58 Sunny 46 7.9 13 -10.5 26 26 SSE 18 30 29.80 1009 10 16 0.00 0.00
12:59 pm 12:59 Sunny 48 9.1 10 -12.5 20 20 SSE 21 33 29.77 1008 10 16 0.00 0.00
1:58 pm 13:58 Sunny 49 9.6 11 -11.7 21 21 SSE 22 35 29.75 1007 10 16 0.00 0.00
2:58 pm 14:58 Sunny 50 9.9 9 -12.6 19 19 SSE 22 35 29.71 1006 10 16 0.00 0.00
3:58 pm 15:58 Sunny 51 10.7 9 -12.9 18 18 SSE 21 33 29.70 1006 10 16 0.00 0.00
4:58 pm 16:58 Sunny 50 10.1 13 -10.6 22 22 SSE 18 30 29.70 1006 10 16 0.00 0.00
5:58 pm 17:58 Sunny 49 9.7 12 -11.1 22 22 SSE 21 33 29.73 1007 10 16 0.00 0.00
6:58 pm 18:58 Sunny 47 8.6 12 -10.9 24 24 S 15 24 29.74 1007 10 16 0.00 0.00
7:58 pm 19:58 Clear 46 8 10 -12 23 23 S 13 20 29.79 1009 10 16 0.00 0.00
8:58 pm 20:58 Clear 46 7.6 12 -11.2 25 25 SSW 14 22 29.83 1010 10 16 0.00 0.00
9:58 pm 21:58 Mostly Clear 45 7 14 -10.2 28 28 SW 3 6 29.83 1010 10 16 0.00 0.00
10:58 pm 22:58 Clear 41 5.1 16 -9.1 35 35 WNW 7 11 29.81 1010 10 16 0.00 0.00
11:58 pm 23:58 Clear 40 4.7 16 -9 37 37 NW 6 9 29.78 1008 10 16 0.00 0.00

Powered by AerisWeather